Regional Weather Roundup
Issued by NWS

Home | Current Version | Previous Version | Graphics & Text | Print | Product List | Glossary On
Versions: 1 2 3 4 5 6 7 8 9 10 11 12 13 14 15 16 17 18 19 20 21 22 23 24 25 26 27 28 29 30 31 32 33 34 35 36 37 38 39 40 41 42 43 44 45 46 47 48 49 50
000
ASUS43 KMKX 201621
RWRWI

WISCONSIN REGIONAL WEATHER ROUNDUP
NATIONAL WEATHER SERVICE MILWAUKEE/SULLIVAN WI
1000 AM CST SAT DEC 20 2014

NOTE: "FAIR" INDICATES FEW OR NO CLOUDS BELOW 12,000 FEET WITH NO
SIGNIFICANT WEATHER AND/OR OBSTRUCTIONS TO VISIBILITY.

WIZ001-002-006>008-014>016-023>028-201700-
NORTHWEST WISCONSIN

CITY           SKY/WX    TMP DP  RH WIND       PRES   REMARKS
SUPERIOR ARPT  CLOUDY    30  26  85 S5        30.16S WCI  25
ASHLAND        CLOUDY    28  24  85 S3        30.20R
HAYWARD        CLOUDY    27  23  85 SE9       30.16S FOG     WCI  18
SIREN          CLOUDY    29  25  84 S8        30.15S FOG     WCI  22
CUMBERLAND     CLOUDY    28  25  86 S7        30.16S FOG     WCI  21
RICE LAKE      CLOUDY    29  25  84 S8        30.19R WCI  21
CHETEK         CLOUDY    28  24  85 E7        30.18F WCI  21
LADYSMITH      CLOUDY    28  25  86 S6        30.20S WCI  22
EAU CLAIRE     CLOUDY    29  23  78 S7        30.19S WCI  22
MENOMONIE      CLOUDY    30  25  81 SE5       30.19S HAZE    WCI  25
NEW RICHMOND   CLOUDY    30  28  91 S7        30.16S FOG     WCI  23
OSCEOLA        CLOUDY    30  27  88 SE8       30.18F FOG     WCI  23
$$

WIZ003>005-009-010-017-018-201700-
NORTH CENTRAL WISCONSIN

CITY           SKY/WX    TMP DP  RH WIND       PRES   REMARKS
MANITOWISH WTR CLOUDY    24  24 100 S6        30.18R FOG     WCI  16
ARBOR VITAE    CLOUDY    25  23  92 CALM      30.18R FOG
WOODRUFF       CLOUDY    25  23  92 CALM      30.18R FOG
RHINELANDER    CLOUDY    23  22  96 S3        30.19S FOG
EAGLE RIVER    LGT SNOW  24  24 100 CALM      30.18S
LAND O LAKES   CLOUDY    24  23  97 CALM      30.19S FOG
PHILLIPS       CLOUDY    25  23  93 SE5       30.17S FOG     WCI  19
TOMAHAWK       CLOUDY    25  23  92 CALM      30.20R FOG
MEDFORD        CLOUDY    25  23  91 S6        30.19S FOG     WCI  18
MERRILL        CLOUDY    26  24  94 CALM      30.21R FOG
$$

WIZ029-030-035-036-043>047-201700-
CENTRAL WISCONSIN

CITY           SKY/WX    TMP DP  RH WIND       PRES   REMARKS
WAUSAU         CLOUDY    26  23  88 SE7       30.20S FOG     WCI  18
MOSINEE        CLOUDY    25  25 100 SE6       30.23R FOG     WCI  18
MARSHFIELD     CLOUDY    27  23  85 S7        30.21R WCI  19
STEVENS POINT  CLOUDY    25  22  89 SE5       30.24R FOG     WCI  20
WAUPACA        CLOUDY    29  24  82 CALM      30.26S HAZE
WAUTOMA        MIX PCPN  28  25  89 CALM      30.26S FOG
WISC RAPIDS    CLOUDY    27  22  81 S3        30.25R
CAMP DOUGLAS   FLURRIES  28  28 100 SE7       30.23S WCI  21
$$

WIZ011>013-019>022-031-037>040-048>050-201700-
NORTHEAST WISCONSIN

CITY           SKY/WX    TMP DP  RH WIND       PRES   REMARKS
ANTIGO         CLOUDY    23  23  99 CALM      30.21R FOG
SHAWANO        CLOUDY    27  24  88 CALM      30.26S
OCONTO         CLOUDY    25  24  96 CALM      30.28S
STURGEON BAY   PTSUNNY   27  21  80 W3        30.28S
GREEN BAY      CLOUDY    26  22  84 S3        30.28R
MANITOWOC      CLOUDY    29  24  82 N3        30.27S
APPLETON       CLOUDY    27  21  80 VRB3      30.26S
CLINTONVILLE   CLOUDY    28  23  80 CALM      30.26S FOG
OSHKOSH        CLOUDY    27  21  78 CALM      30.26S HAZE
$$

WIZ032>034-041-042-053>061-201700-
SOUTHWEST WISCONSIN

CITY           SKY/WX    TMP DP  RH WIND       PRES   REMARKS
LA CROSSE      CLOUDY    31  25  78 SE7       30.22S WCI  24
SPARTA         CLOUDY    29  24  82 SE3       30.24S
VIROQUA        CLOUDY    28  28 100 SE8       30.20S WCI  19
BOSCOBEL       CLOUDY    31  25  78 CALM      30.25S HAZE
PRAIRIE DU CHI MIX PCPN  29  27  90 E6        30.24S WCI  23
PLATTEVILLE    CLOUDY    29  27  91 CALM      30.24S
$$

WIZ056-057-062-063-064-067-068-201700-
SOUTH CENTRAL WISCONSIN

CITY           SKY/WX    TMP DP  RH WIND       PRES   REMARKS
REEDSBURG      CLOUDY    27  25  89 CALM      30.24S FOG
BARABOO/DELLS  CLOUDY    28  24  87 S5        30.24S FOG     WCI  22
LONE ROCK      CLOUDY    32  24  72 SE6       30.26R WCI  26
MINERAL POINT  CLOUDY    30  28  93 SE7       30.23R FOG     WCI  23
MADISON        FLURRIES  28  24  85 S6        30.25S WCI  22
MIDDLETON      CLOUDY    30  26  84 CALM      30.25S
WATERTOWN      LGT SNOW  27  25  91 S3        30.26S
MONROE         CLOUDY    28  27  93 SE6       30.24R FOG     WCI  22
JANESVILLE     CLOUDY    30  25  80 CALM      30.26S FOG
$$

WIZ051-052-058>065-066-070>072-201700-
SOUTHEAST WISCONSIN

CITY           SKY/WX    TMP DP  RH WIND       PRES   REMARKS
MILWAUKEE      CLOUDY    29  19  66 VRB3      30.27F
WAUKESHA       CLOUDY    27  19  74 CALM      30.27S
MILWAUKEE/TIMM CLOUDY    28  19  69 CALM      30.28S
RACINE         CLOUDY    28  20  71 CALM      30.29S
BURLINGTON     CLOUDY    26  21  82 CALM      30.27S
KENOSHA        CLOUDY    29  22  75 CALM      30.27S
FOND DU LAC    CLOUDY    27  21  78 CALM      30.26S
SHEBOYGAN      CLOUDY    28  21  75 NW3       30.27S
WEST BEND      CLOUDY    28  21  74 CALM      30.26R
JUNEAU         CLOUDY    27  23  85 CALM      30.27R
$$

LSZ147-162-201700-
LAKE SUPERIOR

STATION/POSITION TIME  TEMP    WIND        PRES    WAVE
                       AIR SEA DIR/SP/G            HT/PER
                 (UTC) (F)     (DEG/KT/KT) (MB)    (FT/S)
DEVILS ISLAND    1600   29     190/  7/  8 1023.1S
PORT WING        1500   29     170/  8/ 13 1022.0R
SAXON HARBOR     1540   29     190/  7/ 11 1022.4R
$$

LMZ867-665-643>646-201700-
LAKE MICHIGAN

STATION/POSITION TIME  TEMP    WIND        PRES    WAVE
                       AIR SEA DIR/SP/G            HT/PER
                 (UTC) (F)     (DEG/KT/KT) (MB)    (FT/S)
CHAMBERS ISLAND  1500   25     240/  2/  3 1025.1S
NORTHPORT PIER   1529   29      CALM  /  4 1025.1S
SISTER BAY       1358             CALM       N/A
ALGOMA LAKESHORE 1514          340/  7/  8   N/A
KEWAUNEE LAKESHO 1506   27     300/  2/  5 1024.0S
SHEBOYGAN LAKESH 1600   29 34  320/  4/  4 1026.1S
PORT WASHINGTON  1540   29     290/  5/  6 1025.7S
MILWAUKEE LAKESH 1600   28     280/  4/  5   N/A
KENOSHA   LAKESH 1600   29        CALM     1025.4S
$$

TC  - TEMPERATURE IN CELSIUS
VSB - VISIBILITY IN STATUTE MILES
WCI - WIND CHILL INDEX
HX  - HEAT INDEX



USA.gov is the U.S. government's official web portal to all federal, state and local government web resources and services.